Md. Asadullah

Silver Star - 3,716 Points (11th july)

Stats

» Click to list general statistics » OR, select a date :

General Statistics

Visitors of the poet

Number of visitors of the poet’s mainpage in PoemHunter.Com

Attention : Numbers in this table does not indicate the total hits of poems of the poet, but indicates the hits of the poet’s main page.

Date Hits
07/29/2015 Wednesday 53
81%
07/28/2015 Tuesday 42
64%
07/27/2015 Monday 48
73%
07/26/2015 Sunday 22
33%
07/25/2015 Saturday 36
55%
07/24/2015 Friday 27
41%
07/23/2015 Thursday 27
41%
07/22/2015 Wednesday 39
60%
07/21/2015 Tuesday 52
80%
07/20/2015 Monday 47
72%
07/19/2015 Sunday 32
49%
07/18/2015 Saturday 30
46%
07/17/2015 Friday 65
100%
07/16/2015 Thursday 34
52%
07/15/2015 Wednesday 29
44%
07/14/2015 Tuesday 38
58%
07/13/2015 Monday 31
47%
07/12/2015 Sunday 45
69%
07/11/2015 Saturday 9
13%
07/10/2015 Friday 12
18%

Reader rating & num.of MyPoemList’s

Click the captions of columns to change the order.

# Poem Title Submit Date Reader Rating Num.of MyPoemList’s
Rating Num.R.
1 I Want To Be Alone 01/01/2014 10.0 1 1
2 Sounds And A Silence 09/28/2014 10.0 2 1
3 Delhi Zoo Tragedy 09/28/2014 10.0 2 0
4 Religions And Definitions Of God 09/28/2014 10.0 2 0
5 Quran And Microbes 09/29/2014 9.7 3 0
6 Nostalgia Ii 10/12/2014 10.0 2 0
7 Easiest Way To Kill An Enemy 10/15/2014 10.0 3 0
8 Love Perfect One 10/18/2014 10.0 2 0
9 Love For Allah 10/18/2014 10.0 1 0
10 Eyes 10/18/2014 10.0 2 0
11 Honest Opinions 10/19/2014 10.0 2 0
12 Words And Actions 10/19/2014 10.0 2 0
13 Son Of Adam 10/19/2014 10.0 4 0
14 Storm 10/23/2014 10.0 3 0
15 Diwali And Poor Child 10/23/2014 10.0 2 0
16 Yesterday On Bus 10/25/2014 10.0 4 0
17 Distorted Image 10/26/2014 10.0 2 0
18 Evil Eye 10/27/2014 7.5 2 0
19 Perceptions 10/27/2014 10.0 2 0
20 Playful Moon 11/30/2014 10.0 2 0
21 Widow 12/07/2014 10.0 2 0
22 Favour Of God 12/14/2014 10.0 3 0
23 Strings Of Hope 12/14/2014 10.0 4 0
24 Friend And Foe 01/01/2015 10.0 1 0
25 Paths Of Success 01/04/2015 10.0 1 0
26 Charlie Hebdo 01/18/2015 10.0 1 0
27 I Am Not Charlie 01/18/2015 10.0 1 0
28 Bud 07/12/2015 10.0 1 0
29 Terrorism Condemned 01/01/2014 9.5 2 0
30 Night Shift 01/01/2014 10.0 1 0
31 Answering Atheism I 01/01/2014 10.0 1 0
32 Urdu - Dosti 01/01/2014 10.0 1 0
33 Urdu - 01/01/2014 10.0 1 0
34 Urdu - In Praise Of Prophet(Pbuh) 01/01/2014 10.0 1 0
35 Secret Sins 01/01/2014 10.0 1 0
36 Injustice And Patience 01/01/2014 10.0 1 0
37 Voice Against Terrorism. 01/01/2014 10.0 1 0
38 Accept Me Or Reject Me 01/01/2014 10.0 1 0
39 If......., Then 01/01/2014 10.0 2 0
40 Friend Found 01/01/2014 10.0 1 0
41 Secret Revealed 01/01/2014 10.0 1 0
42 Extra Initiative 01/01/2014 10.0 1 0
43 Islam The Touchstone 01/01/2014 10.0 1 0
44 Man Or Machine 01/01/2014 10.0 1 0
45 Lmdians 01/01/2014 10.0 1 0
46 Where Are You My Love, Where Are You? 01/01/2014 10.0 1 0
47 *reflection 01/01/2014 10.0 1 0
48 Suicide 01/01/2014 10.0 1 0
49 Cigarette Personified 01/01/2014 10.0 1 0
50 Islam 01/01/2014 10.0 1 0
51 Blessed Birth Of Prophet(Pbuh) 01/01/2014 10.0 1 0
52 Going Into Depression 01/01/2014 10.0 1 0
53 Silence Speaks 01/01/2014 10.0 1 0
54 Nostalgia 01/01/2014 10.0 1 0
55 Dance Of A Fakir 01/01/2014 10.0 1 0
56 I Am Man 01/01/2014 10.0 1 0
57 My Imagination 01/01/2014 10.0 1 0
58 Death 01/01/2014 10.0 1 0
59 Fantasy 01/01/2014 10.0 1 0
60 Jealousy 01/01/2014 10.0 1 0
61 Lie 01/01/2014 10.0 1 0
62 Rugby 01/01/2014 10.0 1 0
63 Salaat 01/01/2014 10.0 1 0
64 Temptation 01/01/2014 -- 0 0
65 Revolution 01/01/2014 10.0 1 0
66 In Search Of Fear 01/01/2014 10.0 1 0
67 Aimless I 01/01/2014 10.0 1 0
68 Bomb Blast 01/01/2014 10.0 1 0
69 Or Is That Me Who Is Sad? 01/01/2014 10.0 1 0
70 Unwritten Soul 01/01/2014 10.0 1 0
71 Have You Ever Seen It Brush? 01/01/2014 10.0 1 0
72 Revealed - My Patriotism 01/01/2014 10.0 1 0
73 Ant 01/01/2014 10.0 1 0
74 Through Windows Of Time 01/01/2014 10.0 1 0
75 A Muslim's Prayer 01/01/2014 10.0 2 0
76 A Meeting With Beloved Bapu(Gandhi) 01/01/2014 10.0 1 0
77 Aimless Iii 01/01/2014 10.0 1 0
78 Poem 01/01/2014 10.0 1 0
79 Way To My Destination 01/01/2014 10.0 1 0
80 Satan's Three Knots 01/01/2014 10.0 1 0
81 Sun And Doomsday 01/01/2014 10.0 1 0
82 Yesterday My Childhood Came 01/01/2014 10.0 1 0
83 What Is Life? 01/01/2014 10.0 1 0
84 All Praise Is Due To Allah 01/01/2014 10.0 2 0
85 Am I Still Alive? 01/01/2014 10.0 1 0
86 Love 01/01/2014 10.0 1 0
87 I Stand 'Tween Right And Wrong. 01/01/2014 10.0 1 0
88 Yes, I Confess... 01/01/2014 10.0 1 0
89 Answering Atheism Ii 01/01/2014 10.0 1 0
90 Blessed Birth Of Jesus(Pbuh) - [islamic Perspective] 01/01/2014 10.0 1 0
91 Elections 2014(Ii) 01/01/2014 10.0 1 0
92 Waliullah - Friend Of Allah(Swt) 01/01/2014 10.0 1 0
93 Aimless Ii 01/01/2014 10.0 1 0
94 My Enemy Let Us Compete 01/01/2014 10.0 1 0
95 Why I'Ve Reached My Destination So Late 01/01/2014 10.0 1 0
96 Inside Job! - 9/11 01/01/2014 10.0 1 0
97 Little By Little I See My Henna Plant Grow 01/01/2014 10.0 1 0
98 Destiny Is Like Shadow 01/01/2014 10.0 1 0
99 Elections 2014(I) 01/01/2014 10.0 1 0
100 Environment Friendly Poem 01/01/2014 10.0 1 0
101 I Doubt! 01/04/2014 10.0 2 0
102 Message On 12 Rabi Ul Awal 01/14/2014 10.0 1 0
103 Dead Leaves 01/18/2014 10.0 1 0
104 Broken Wings And Dead Smiles 01/19/2014 10.0 1 0
105 Truth's Naked Dance 01/26/2014 10.0 1 0
106 Death Will Be Put To Death! 02/02/2014 10.0 1 0
107 Spoken Words 02/02/2014 10.0 1 0
108 Soldier And Author 02/02/2014 10.0 1 0
109 Kill..... 02/08/2014 10.0 1 0
110 Elections 2014(Iii) 02/08/2014 10.0 1 0
111 Standing Amongst Stones... 02/15/2014 10.0 1 0
112 Homo Sapiens 02/15/2014 10.0 1 0
113 My Real Tongue 02/15/2014 10.0 1 0
114 Let's Show The Shiny Part 02/16/2014 10.0 1 0
115 Aimless Iv 02/16/2014 10.0 1 0
116 Two Breaths Of Hellfire 02/16/2014 10.0 3 0
117 Protest Against Double Standards 02/23/2014 10.0 1 0
118 Mercy 02/23/2014 10.0 1 0
119 Honest/Dishonest 03/01/2014 10.0 1 0
120 Burn All These 'Old Age Homes' 03/01/2014 10.0 1 0
121 Never Despise Any Old Book 03/03/2014 10.0 2 0
122 - -Quran 75. The Rising Of The Dead, Resurrection- - 03/05/2014 10.0 1 0
123 Urdu 1 03/02/2014 10.0 1 0
124 God's Mercy Prevails Over His Wrath. 03/01/2014 10.0 1 0
125 I Wished For Thousand Springs 03/01/2014 10.0 1 0
126 Buttering And Oiling 03/01/2014 10.0 1 0
127 Is It Something In Me..... 03/01/2014 10.0 1 0
128 English Translation Of My Urdu 1 Poem 03/14/2014 10.0 1 0
129 Freedom's Journey 03/17/2014 10.0 1 0
130 Declaration 03/17/2014 10.0 1 0
131 Let Me Give You This Shock(Global Warming) 03/15/2014 10.0 1 0
132 My Thoughts On Your Thoughts 03/15/2014 10.0 1 0
133 O East! 03/19/2014 10.0 1 0
134 Holi-Day And Holiday 03/19/2014 10.0 1 0
135 Character Certificates 03/19/2014 10.0 1 0
136 Sun, Moon And My Imagination 03/19/2014 10.0 2 0
137 O Tree Of Art! 03/19/2014 10.0 1 0
138 Effective Decision Making 03/14/2014 10.0 1 0
139 Wise Men! - A Piece Of Advice 03/21/2014 10.0 1 0
140 Pack Of Wolves And An Ass 03/14/2014 5.5 2 0
141 I Know How They Tame Wild Elephants 03/24/2014 10.0 1 0
142 Gandhiji's Statue 03/24/2014 10.0 1 0
143 Equal Doesn'T Mean Identical 03/29/2014 7.5 2 0
144 They All.. 03/31/2014 10.0 1 0
145 Agree Or Disagree 03/29/2014 10.0 2 0
146 Different Perspective 03/29/2014 10.0 1 0
147 Only One 04/02/2014 10.0 2 0
148 Color Unseen 04/02/2014 10.0 2 0
149 East, West, Best 04/02/2014 10.0 3 0
150 Talk/Walk 04/02/2014 10.0 1 0
151 Wall Of Ego 04/06/2014 10.0 2 0
152 It Could Be Within Us 04/06/2014 10.0 2 0
153 I Just Don'T Care 04/06/2014 10.0 1 0
154 Don'T Take Name Of Martyrs 04/20/2014 10.0 2 0
155 Destination 04/26/2014 10.0 2 0
156 Darwin's Theory(Science Or Fairy-Tale) 05/05/2014 8.5 4 0
157 Except One 05/11/2014 7.5 2 0
158 Today 05/11/2014 8.3 3 0
159 Helpless Finger! 06/22/2014 10.0 2 0
160 Ignorant Sufi Is Tool Of The Satan 07/20/2014 10.0 2 0
161 Gaza And The Warning 07/20/2014 10.0 1 0
162 Me, The Loner 07/20/2014 10.0 1 0
163 I Am Gaza, 'Mother Of All Prisons' 07/20/2014 9.3 3 0
164 Steel And Paper 08/03/2014 10.0 2 0
165 Tangible Beliefs 08/10/2014 10.0 2 0
166 Urdu- Ummat-E-Muslimah Ka Haal 08/10/2014 10.0 2 0
167 Foolish Act 08/10/2014 10.0 1 0
168 Wealthiest Of Them All 08/10/2014 10.0 1 0
169 Dealing With Cobra 08/15/2014 10.0 1 0
170 A Prayer 08/15/2014 10.0 1 0
171 Inadequacies Found 08/16/2014 10.0 1 0
172 Me, Me And Me Is What Makes We 08/16/2014 9.5 2 0
173 Inner Peace? 08/17/2014 9.3 3 0
174 She Feared.. 08/30/2014 9.5 2 0
175 Terror 08/30/2014 10.0 2 0
176 Ancient Mythologies And Verses Holy 08/30/2014 10.0 3 0
177 Mr Nice 09/01/2014 10.0 1 0
178 Failures My Friend 09/01/2014 10.0 1 0
179 Strife 09/02/2014 10.0 1 0
180 Misunderstanding 09/03/2014 10.0 1 0
181 Options 09/04/2014 10.0 1 0
182 Hidden Words 09/07/2014 10.0 1 0
183 Set Me Free 09/07/2014 10.0 1 0
184 Pain 09/07/2014 10.0 1 0
185 Pleasure In Pain 09/07/2014 10.0 1 0
186 Give Some Time 09/07/2014 10.0 1 0
187 Prying Eyes 09/07/2014 10.0 2 0
188 Hunting 09/07/2014 10.0 1 0
189 Trick 09/07/2014 10.0 1 0
190 Mad With Anger 09/07/2014 10.0 1 0
191 Drum Of Freedom 09/08/2014 10.0 4 0
192 Who Are They? Who Are They? [isis] 09/08/2014 10.0 1 0
193 In Tiny Heart.. 09/19/2014 10.0 3 0
194 Wake Up! 09/21/2014 10.0 4 0
195 Judgements 09/28/2014 10.0 3 0
[Hata Bildir]